IZ0QWM-13 Scandriglia IT current weather conditions

sailwx.info

Wind from 194

Air temperature 14.4° C
Dewpoint 8.6° C

Last reported at 2014-Oct-25 09:46 UTC.
Time now 2014-Oct-25 10:18 UTC

Location: N 42°10' E 012°47'.
View on Google Maps.

See reports from other nearby stations

  
Tides and Currents Weather Stations Pressure Air Temp Water Temp Dewpoint Dewpoint Depression Visibility Wind Speed Wind Dir Waves Ship Positions
date/time (UTC)wind fromknots sea level pressurealtimeterstation pressurevisibilityair tempwater tempwave heightnotes
2014-Oct-25 09:46 194 14.4
2014-Oct-25 09:36 170 14.4
2014-Oct-25 09:26 262 13.9
2014-Oct-25 09:15 170 13.9
2014-Oct-25 09:05 253 13.9
2014-Oct-25 08:55 255 6 gusting 6 13.9
2014-Oct-25 08:45 087 13.9
2014-Oct-25 08:35 087 13.9
2014-Oct-25 08:25 087 14.4
2014-Oct-25 08:15 087 14.4
2014-Oct-25 08:05 087 13.9
2014-Oct-25 07:55 087 13.3
2014-Oct-25 07:45 112 12.2
2014-Oct-25 07:35 112 11.7
2014-Oct-25 07:25 105 11.1
2014-Oct-25 07:15 066 10.0
2014-Oct-25 07:05 049 9.4
2014-Oct-25 06:55 076 8.3
2014-Oct-25 06:45 122 7.8
2014-Oct-25 06:35 160 7.8
2014-Oct-25 06:25 075 2 gusting 5 7.8
2014-Oct-25 06:15 065 1 gusting 5 8.3
2014-Oct-25 06:05 084 2 gusting 5 7.8
2014-Oct-25 05:55 069 7.2
2014-Oct-25 05:45 069 6.7
2014-Oct-25 05:35 089 6.7
2014-Oct-25 05:25 075 2 gusting 3 6.7
2014-Oct-25 05:15 089 6.7
2014-Oct-25 05:05 089 6.7
2014-Oct-25 04:55 079 6.7
2014-Oct-25 04:45 080 3 gusting 6 6.7
2014-Oct-25 04:35 083 6.7
2014-Oct-25 04:25 062 6.7
2014-Oct-25 04:15 088 3 gusting 6 6.7
2014-Oct-25 04:05 082 7.2
2014-Oct-25 03:55 079 1 gusting 6 7.2
2014-Oct-25 03:45 060 7.2
2014-Oct-25 03:35 060 7.2
2014-Oct-25 03:25 112 7.2
2014-Oct-25 03:15 112 7.2
2014-Oct-25 03:05 112 7.2
2014-Oct-25 02:55 112 7.2
2014-Oct-25 02:45 063 7.2
2014-Oct-25 02:35 063 7.8
2014-Oct-25 02:25 039 7.8
2014-Oct-25 02:15 039 7.8
2014-Oct-25 02:04 049 8.3
2014-Oct-25 01:54 018 8.3
2014-Oct-25 01:44 018 7.8
2014-Oct-25 01:34 104 7.8
2014-Oct-25 01:24 104 7.8
2014-Oct-25 01:14 117 2 gusting 6 7.8
2014-Oct-25 01:04 063 7.8
2014-Oct-25 00:54 077 7.8
2014-Oct-25 00:44 082 3 gusting 5 7.8
2014-Oct-25 00:34 083 7.8
2014-Oct-25 00:24 083 7.8
2014-Oct-25 00:14 080 7.8
2014-Oct-25 00:04 080 8.3
2014-Oct-24 23:54 087 2 gusting 5 8.3
2014-Oct-24 23:44 056 8.3
2014-Oct-24 23:34 100 7.8
2014-Oct-24 23:24 059 8.3
2014-Oct-24 23:14 065 8.3
2014-Oct-24 23:04 146 8.9
2014-Oct-24 22:54 086 9.4
2014-Oct-24 22:44 086 8.9
2014-Oct-24 22:34 087 8.9
2014-Oct-24 22:24 090 8.9
2014-Oct-24 22:14 083 8.9
2014-Oct-24 22:04 077 8.9
2014-Oct-24 21:54 079 2 gusting 6 8.9
2014-Oct-24 21:44 070 8.9
2014-Oct-24 21:34 097 4 gusting 6 9.4
2014-Oct-24 21:24 058 10.0
2014-Oct-24 21:14 156 9.4
2014-Oct-24 21:04 077 2 gusting 6 9.4
2014-Oct-24 20:54 083 10.6
2014-Oct-24 20:44 011 10.6
2014-Oct-24 20:34 072 10.0
2014-Oct-24 20:24 075 10.0
2014-Oct-24 20:14 089 10.0
2014-Oct-24 20:04 093 4 gusting 6 10.6
2014-Oct-24 19:54 082 10.6
2014-Oct-24 19:44 049 11.1
2014-Oct-24 19:34 075 11.1
2014-Oct-24 19:24 110 11.1
2014-Oct-24 19:04 135 12.2
2014-Oct-24 18:54 135 12.2
2014-Oct-24 18:44 135 12.2
2014-Oct-24 18:34 135 12.2
2014-Oct-24 18:24 135 12.8
2014-Oct-24 18:14 135 12.8
2014-Oct-24 18:04 135 12.8
2014-Oct-24 17:54 135 13.3
2014-Oct-24 17:44 135 13.3
2014-Oct-24 17:34 135 13.3
2014-Oct-24 17:24 135 13.3
2014-Oct-24 17:14 135 13.3
2014-Oct-24 17:04 135 13.3
2014-Oct-24 16:53 135 13.9
2014-Oct-24 16:44 176 13.9
2014-Oct-24 16:33 164 2 gusting 6 14.4
2014-Oct-24 16:24 069 14.4
2014-Oct-24 16:14 222 15.0
2014-Oct-24 16:04 222 15.0
2014-Oct-24 15:54 027 15.6
2014-Oct-24 15:43 235 16.1
2014-Oct-24 15:33 037 16.7
2014-Oct-24 15:24 240 17.2
2014-Oct-24 15:14 240 17.8
2014-Oct-24 15:04 240 17.8
2014-Oct-24 14:54 240 18.3
2014-Oct-24 14:44 240 17.8
2014-Oct-24 14:14 098 18.3
2014-Oct-24 14:04 098 18.9
2014-Oct-24 13:54 098 18.9
2014-Oct-24 13:44 098 18.9
2014-Oct-24 13:34 098 19.4
2014-Oct-24 13:24 098 19.4
2014-Oct-24 13:14 098 18.9
2014-Oct-24 13:04 098 17.8
2014-Oct-24 12:54 098 18.3
2014-Oct-24 12:44 049 18.9
2014-Oct-24 12:32 049 18.3
2014-Oct-24 12:24 028 18.3
2014-Oct-24 12:14 028 19.4
2014-Oct-24 12:04 077 18.9
2014-Oct-24 11:54 006 3 gusting 5 18.9
2014-Oct-24 11:44 082 18.9
2014-Oct-24 11:34 069 18.9
2014-Oct-24 11:24 069 18.3
2014-Oct-24 11:14 069 17.2
2014-Oct-24 11:04 319 17.2
2014-Oct-24 10:54 319 16.7
2014-Oct-24 10:44 319 16.7
2014-Oct-24 10:32 044 16.7
2014-Oct-24 10:22 044 1 gusting 6 15.6
2014-Oct-24 10:14 131 15.0
2014-Oct-24 10:02 166 14.4
2014-Oct-24 09:54 166 14.4
2014-Oct-24 09:44 089 14.4
2014-Oct-24 09:34 090 13.9
2014-Oct-24 09:22 090 13.9
2014-Oct-24 09:12 090 13.3
2014-Oct-24 09:04 090 13.3
2014-Oct-24 08:54 090 13.3
2014-Oct-24 08:44 090 13.3
2014-Oct-24 08:34 090 13.3
2014-Oct-24 08:24 090 12.8
2014-Oct-24 08:14 086 12.2
2014-Oct-24 08:04 089 12.2
2014-Oct-24 07:54 089 11.7
2014-Oct-24 07:44 177 11.1
2014-Oct-24 07:32 177 10.0
2014-Oct-24 07:22 177 10.0
2014-Oct-24 07:12 177 10.0
2014-Oct-24 07:04 177 10.0
2014-Oct-24 06:54 177 9.4
2014-Oct-24 06:44 177 8.9
2014-Oct-24 06:34 075 8.9
2014-Oct-24 06:24 075 8.3
2014-Oct-24 06:14 075 7.8
2014-Oct-24 06:04 075 8.3
2014-Oct-24 05:54 063 8.3
2014-Oct-24 05:44 070 2 gusting 4 8.3
2014-Oct-24 05:34 072 8.3
2014-Oct-24 05:24 072 8.3
2014-Oct-24 05:14 072 7.8
2014-Oct-24 05:01 072 7.8
2014-Oct-24 04:54 072 7.8
2014-Oct-24 04:44 087 7.8
2014-Oct-24 04:31 087 7.8
2014-Oct-24 04:24 087 7.8
2014-Oct-24 04:14 094 7.8
2014-Oct-24 04:04 027 7.8
2014-Oct-24 03:51 027 7.8
2014-Oct-24 03:44 027 7.2
2014-Oct-24 03:34 027 7.2
2014-Oct-24 03:24 027 7.2
2014-Oct-24 03:14 027 7.2
2014-Oct-24 03:04 027 6.7
2014-Oct-24 02:51 027 6.7
2014-Oct-24 02:41 062 6.1
2014-Oct-24 02:34 062 6.1
2014-Oct-24 02:24 090 6.1
2014-Oct-24 02:14 073 6.1
2014-Oct-24 02:04 045 6.1
2014-Oct-24 01:54 084 6.7
2014-Oct-24 01:44 084 6.7
2014-Oct-24 01:34 084 7.2
2014-Oct-24 01:24 082 7.2
2014-Oct-24 01:14 010 7.2
2014-Oct-24 01:03 010 7.8
2014-Oct-24 00:53 010 7.8
2014-Oct-24 00:43 010 8.3
2014-Oct-24 00:31 010 8.3
2014-Oct-24 00:23 010 8.3
2014-Oct-24 00:21 010 8.3
2014-Oct-24 00:11 010 8.9
2014-Oct-24 00:03 010 8.9
2014-Oct-24 00:01 010 8.9
2014-Oct-23 23:53 010 8.3
2014-Oct-23 23:51 010 8.3
2014-Oct-23 23:41 010 8.3
2014-Oct-23 23:33 010 8.9
2014-Oct-23 23:31 010 8.9
2014-Oct-23 23:23 010 8.9
2014-Oct-23 23:21 010 8.9
2014-Oct-23 23:13 010 8.9
2014-Oct-23 23:11 010 8.9
2014-Oct-23 23:03 010 8.9
2014-Oct-23 23:01 010 8.9
2014-Oct-23 22:53 010 8.9
2014-Oct-23 22:51 010 8.9
2014-Oct-23 22:43 010 8.9
2014-Oct-23 22:41 010 9.4
2014-Oct-23 22:31 010 9.4
2014-Oct-23 22:23 045 9.4
2014-Oct-23 22:21 045 9.4
2014-Oct-23 22:13 045 9.4
2014-Oct-23 22:11 045 9.4
2014-Oct-23 22:03 046 9.4
2014-Oct-23 22:01 340 2 gusting 7 9.4
2014-Oct-23 21:53 030 9.4
2014-Oct-23 21:50 030 9.4
2014-Oct-23 21:43 003 9.4
2014-Oct-23 21:40 003 9.4
2014-Oct-23 21:33 003 9.4
2014-Oct-23 21:30 003 9.4
2014-Oct-23 21:23 003 9.4
2014-Oct-23 21:20 038 2 gusting 7 9.4
2014-Oct-23 21:13 041 9.4
2014-Oct-23 21:10 041 10.0
2014-Oct-23 21:03 041 10.0
2014-Oct-23 21:00 041 10.0
2014-Oct-23 20:50 066 10.0
2014-Oct-23 20:43 066 10.0
2014-Oct-23 20:40 010 3 gusting 6 10.0
2014-Oct-23 20:33 041 10.0
2014-Oct-23 20:30 020 10.0
2014-Oct-23 20:20 017 2 gusting 6 10.0
2014-Oct-23 20:13 031 10.0
2014-Oct-23 20:10 030 1 gusting 6 10.0
2014-Oct-23 20:03 010 10.0
2014-Oct-23 19:50 045 10.0
2014-Oct-23 19:43 045 10.0
2014-Oct-23 19:40 045 10.0
2014-Oct-23 19:33 045 10.6
2014-Oct-23 19:30 045 10.0
2014-Oct-23 19:23 294 10.6
2014-Oct-23 19:20 038 10.0
2014-Oct-23 19:13 014 10.6
2014-Oct-23 19:10 031 10.6
2014-Oct-23 19:03 025 2 gusting 2 10.6
2014-Oct-23 19:00 025 10.0